This demonstration page uses our WeatherBlox Daily Observations layout. Learn more.

Left ArrowRight Arrow

Hourly Observations for September 30, 2020

Temp ( °F °C ) Dew Point ( °F °C ) Humidity (%) Winds ( mph kmh ) Pressure ( in mb ) Visibility ( mi km ) Precip ( " mm )
12:15 am 00:15 Clear 53 11.4 40 4.7 64 64 N N/A 29.89 1012 10 16 N/A
12:32 am 00:32 Clear 52 11 41 5 67 67 W 3 6 29.89 1012 10 16 N/A
12:35 am 00:35 Clear 52 11 40 4.7 65 65 W 3 6 29.89 1012 10 16 N/A
12:55 am 00:55 Clear 51 10.8 41 5 68 68 N N/A 29.90 1012 10 16 N/A
1:15 am 01:15 Clear 51 10.5 41 5.2 70 70 W 3 6 29.91 1013 10 16 N/A
1:35 am 01:35 Clear 50 10 41 5 71 71 W 5 7 29.92 1013 10 16 N/A
1:55 am 01:55 Clear 54 12 40 4.5 60 60 W 5 7 29.92 1013 10 16 N/A
2:15 am 02:15 Clear 56 13.5 40 4.2 54 54 W 6 9 29.89 1012 10 16 N/A
2:35 am 02:35 Clear 56 13.1 39 4.1 55 55 W 9 15 29.90 1012 10 16 N/A
2:55 am 02:55 Clear 59 14.9 38 3.6 47 47 W 8 13 29.88 1012 10 16 N/A
3:15 am 03:15 Clear 58 14.3 38 3.5 48 48 W 7 11 29.87 1011 10 16 N/A
3:35 am 03:35 Clear 53 11.7 39 4 59 59 WNW 7 11 29.91 1013 10 16 N/A
3:55 am 03:55 Clear 52 11 40 4.3 64 64 NW 5 7 29.90 1013 10 16 N/A
4:15 am 04:15 Clear 50 10.2 40 4.3 67 67 W 7 11 29.91 1013 10 16 N/A
4:35 am 04:35 Clear 51 10.7 40 4.2 64 64 WNW 6 9 29.92 1013 10 16 N/A
4:55 am 04:55 Clear 52 11.3 39 4.1 62 62 WNW 8 13 29.91 1013 10 16 N/A
5:15 am 05:15 Clear 52 11 39 4 62 62 WNW 8 13 29.91 1013 10 16 N/A
5:35 am 05:35 Clear 52 11.1 39 4.1 62 62 WNW 8 13 29.92 1013 10 16 N/A
5:55 am 05:55 Clear 51 10.8 39 4.1 64 64 WNW 7 11 29.93 1013 10 16 N/A
6:15 am 06:15 Clear 51 10.5 40 4.2 65 65 NW 8 13 29.94 1014 10 16 N/A
6:35 am 06:35 Clear 54 12.4 40 4.4 58 58 WNW 8 13 29.95 1014 10 16 N/A
6:55 am 06:55 Clear 55 13 40 4.4 56 56 WNW 10 17 29.97 1015 10 16 N/A
7:15 am 07:15 Clear 56 13.5 40 4.2 54 54 NW 9 15 29.97 1015 10 16 N/A
7:35 am 07:35 Sunny 56 13.2 40 4.2 55 55 NNW 9 15 29.98 1015 10 16 N/A
7:55 am 07:55 Sunny 55 12.8 40 4.2 56 56 NNW 10 17 30.02 1017 10 16 N/A
8:15 am 08:15 Sunny 56 13.2 40 4.7 57 57 NNW 10 17 30.03 1017 10 16 N/A
8:35 am 08:35 Sunny 57 14 41 5.1 55 55 NNW 10 17 30.05 1018 10 16 N/A
8:55 am 08:55 Sunny 59 14.8 42 5.6 54 54 NNW 12 19 30.05 1018 10 16 N/A
9:15 am 09:15 Sunny 60 15.8 43 6 52 52 N 12 19 30.06 1018 10 16 N/A
9:35 am 09:35 Sunny 63 17.1 43 6 48 48 N 13 20 30.06 1018 10 16 N/A
9:55 am 09:55 Sunny 63 17.4 42 5.7 46 46 N 17 28 30.06 1018 10 16 N/A
10:15 am 10:15 Sunny 64 17.8 42 5.5 45 45 N 16 26 30.08 1018 10 16 N/A
10:35 am 10:35 Sunny 65 18.1 38 3.5 38 38 N 15 24 30.08 1019 10 16 N/A
10:55 am 10:55 Sunny 66 18.9 38 3.3 36 36 N 18 30 30.08 1018 10 16 N/A
11:15 am 11:15 Sunny 66 18.8 38 3.2 36 36 N 17 28 30.09 1019 10 16 N/A
11:35 am 11:35 Sunny 67 19.5 36 2.4 32 32 NNW 22 35 30.08 1019 10 16 N/A
11:55 am 11:55 Sunny 67 19.2 33 0.3 28 28 N 24 39 30.09 1019 10 16 N/A
12:15 pm 12:15 Sunny 67 19.4 32 -0.1 27 27 N 21 33 30.10 1019 10 16 N/A
12:35 pm 12:35 Sunny 68 20 31 -0.3 26 26 NNW 14 22 30.10 1019 10 16 N/A
12:55 pm 12:55 Sunny 68 20 30 -1.2 24 24 NNW 17 28 30.10 1019 10 16 N/A
1:15 pm 13:15 Sunny 68 20.1 30 -1.2 24 24 N 21 33 30.10 1019 10 16 N/A
1:35 pm 13:35 Sunny 68 20.2 29 -1.8 23 23 NNW 13 20 30.11 1019 10 16 N/A
1:55 pm 13:55 Sunny 69 20.5 29 -1.6 23 23 N 22 35 30.09 1019 10 16 N/A
2:15 pm 14:15 Sunny 69 20.5 30 -1.2 23 23 N 12 19 30.09 1019 10 16 N/A
2:35 pm 14:35 Sunny 69 20.7 28 -2.1 22 22 N 15 24 30.09 1019 10 16 N/A
2:55 pm 14:55 Sunny 69 20.7 28 -2.4 21 21 NNW 23 37 30.07 1018 10 16 N/A
3:15 pm 15:15 Sunny 69 20.7 26 -3.6 19 19 NNW 15 24 30.08 1019 10 16 N/A
3:35 pm 15:35 Sunny 69 20.8 28 -2.4 21 21 NW 18 30 30.08 1019 10 16 N/A
3:55 pm 15:55 Sunny 69 20.6 24 -4.4 18 18 NNW 21 33 30.07 1018 10 16 N/A
4:15 pm 16:15 Sunny 69 20.4 25 -3.8 19 19 NW 15 24 30.07 1018 10 16 N/A
4:35 pm 16:35 Sunny 69 20.5 25 -3.7 19 19 NW 16 26 30.07 1018 10 16 N/A
4:55 pm 16:55 Sunny 68 20.1 26 -3.4 20 20 NNW 16 26 30.08 1018 10 16 N/A
5:15 pm 17:15 Sunny 68 20.2 26 -3.5 20 20 NNW 12 19 30.10 1019 10 16 N/A
5:35 pm 17:35 Sunny 68 20 22 -5.3 18 18 NNW 13 20 30.08 1019 10 16 N/A
5:55 pm 17:55 Sunny 67 19.5 22 -5.3 18 18 NNW 16 26 30.08 1019 10 16 N/A
6:15 pm 18:15 Sunny 67 19.2 22 -5.4 18 18 NNW 13 20 30.09 1019 10 16 N/A
6:35 pm 18:35 Sunny 65 18.6 24 -4.6 20 20 N 15 24 30.10 1019 10 16 N/A
6:55 pm 18:55 Sunny 64 18 24 -4.3 22 22 NNW 10 17 30.11 1020 10 16 N/A
7:15 pm 19:15 Sunny 63 17.1 25 -4 23 23 NNW 9 15 30.12 1020 10 16 N/A
7:35 pm 19:35 Clear 61 16.3 25 -4 25 25 NNW 9 15 30.14 1021 10 16 N/A
7:55 pm 19:55 Clear 60 15.5 26 -3.5 27 27 NNW 8 13 30.15 1021 10 16 N/A
8:15 pm 20:15 Mostly Cloudy 59 14.8 26 -3.3 29 29 NW 7 11 30.16 1021 10 16 N/A
8:35 pm 20:35 Mostly Cloudy 57 13.8 27 -3 31 31 NW 3 6 30.17 1022 10 16 N/A
8:55 pm 20:55 Partly Cloudy 56 13.4 27 -2.6 33 33 WNW 5 7 30.17 1022 10 16 N/A
9:15 pm 21:15 Partly Cloudy 55 12.5 28 -2.3 36 36 NW 5 7 30.18 1022 10 16 N/A
9:35 pm 21:35 Partly Cloudy 57 14 26 -3.2 30 30 NNW 7 11 30.20 1023 10 16 N/A
9:55 pm 21:55 Partly Cloudy 56 13.1 26 -3.1 33 33 NNW 6 9 30.19 1022 10 16 N/A
10:15 pm 22:15 Partly Cloudy 55 12.9 26 -3.2 33 33 NNW 9 15 30.20 1023 10 16 N/A
10:35 pm 22:35 Clear 56 13.5 26 -3.5 31 31 NNW 9 15 30.21 1023 10 16 N/A
10:55 pm 22:55 Clear 55 12.7 26 -3.2 33 33 NW 6 9 30.21 1023 10 16 N/A
11:15 pm 23:15 Partly Cloudy 52 11 27 -2.8 38 38 NW 8 13 30.23 1024 10 16 N/A
11:35 pm 23:35 Partly Cloudy 55 12.6 27 -2.7 35 35 NW 7 11 30.23 1024 10 16 N/A
11:55 pm 23:55 Partly Cloudy 53 11.8 28 -2.5 37 37 NW 8 13 30.23 1024 10 16 N/A

Powered by AerisWeather